Simultaneous Nadir Overpasses (SNOs) Predictions

Prediction of SNOs between AQUA and METOP-B Satellite Orbit:

Table of predicted SNOs for the next 14.0 days since TLE Epoch: 3/20/2021
Index Date (AQUA) Time (AQUA) Lat,Lon (AQUA) SZA (AQUA ) Date (METOP-B) Time (METOP-B) Lat,Lon (METOP-B) SZA (METOP-B ) Distance(km) Time Diff (sec)
1 03/22/2021 03:27:42 -73.76, -57.52 106.89 03/22/2021 03:26:35 -73.77, -57.60 106.86 2.80 67
2 03/22/2021 04:17:12 73.87, 109.87 73.23 03/22/2021 04:17:13 73.86, 109.95 73.21 2.84 1
3 03/22/2021 05:06:39 -73.96, -82.69 106.70 03/22/2021 05:07:52 -74.00, -82.40 106.69 9.55 73
4 03/24/2021 23:01:57 -73.79, 8.86 107.98 03/24/2021 23:00:55 -73.77, 8.81 107.98 2.52 62
5 03/24/2021 23:51:26 73.85, 176.36 72.08 03/24/2021 23:51:33 73.86, 176.36 72.09 1.30 7
6 03/25/2021 00:40:58 -74.20, -16.78 107.56 03/25/2021 00:42:08 -74.19, -15.51 107.62 38.67 70
7 03/27/2021 18:36:13 -73.82, 75.23 109.05 03/27/2021 18:35:15 -73.82, 75.33 109.05 3.05 58
8 03/27/2021 19:25:42 73.88,-117.28 71.01 03/27/2021 19:25:54 73.86,-117.24 70.98 3.04 12
9 03/27/2021 20:15:17 -74.38, 49.22 108.47 03/27/2021 20:16:25 -74.38, 51.39 108.55 65.17 68
10 03/30/2021 14:10:28 -73.80, 141.70 110.17 03/30/2021 14:09:36 -73.81, 141.72 110.16 1.33 52
11 03/30/2021 14:59:57 73.87, -50.82 69.89 03/30/2021 15:00:15 73.85, -50.84 69.87 1.89 18
12 03/30/2021 15:49:37 -74.62, 115.07 109.32 03/30/2021 15:50:42 -74.57, 118.30 109.48 95.60 65
13 04/02/2021 09:44:42 -73.79,-151.85 111.28 04/02/2021 09:43:56 -73.80,-151.88 111.26 1.68 46
14 04/02/2021 10:34:11 73.86, 15.63 68.79 04/02/2021 10:34:35 73.85, 15.56 68.78 2.85 24



Historial Predications of SNOs between AQUA and METOP-B
